Regional Weather Roundup
Issued by NWS

Home | Current Version | Previous Version | Graphics & Text | Print | Product List | Glossary On
Versions: 1 2 3 4 5 6 7 8 9 10 11 12 13 14 15 16 17 18 19 20 21 22 23 24 25 26 27 28 29 30 31 32 33 34 35 36 37 38 39 40 41 42 43 44 45 46 47 48 49 50
000
ASUS45 KABQ 311101
RWRNM
WEATHER ROUNDUP FOR NEW MEXICO
NATIONAL WEATHER SERVICE ALBUQUERQUE NM
500 AM MDT THU JUL 31 2014

NOTE: "FAIR" MEANS FEW OR NO CLOUDS BELOW 12,000 FEET AGL WITH NO
       SIGNIFICANT WEATHER OR OBSTRUCTIONS TO VISION.

      THIS PRODUCT IS RELEASED AS TWO VERSIONS.  ONE VERSION NEAR
      THE TOP OF THE HOUR CONTAINING PRELIMINARY DATA FROM ALBUQUERQUE
      AND OTHER STATIONS.  A FINAL VERSION WITH ADDITIONAL DATA IS
      ISSUED ABOUT 10 MINUTES AFTER THE HOUR.

NMZ501-503-504-510>518-311200-
NORTHWEST PLATEAU/NORTHCENTRAL MOUNTAINS

CITY           SKY/WX    TMP DP  RH WIND       PRES   REMARKS
FARMINGTON     CLEAR     68  54  60 E7        30.18S
LOS ALAMOS     CLOUDY    56  56 100 S10G18    30.39F
SANTA FE       CLOUDY    58  55  90 S10       30.34S
TAOS           CLOUDY    59  54  82 CALM      30.37S
ANGEL FIRE     CLOUDY    52  50  93 CALM      30.46S

$$
NMZ402-403-502-505>509-311200-
WESTCENTRAL MOUNTAINS/SOUTHWEST MOUNTAINS

CITY           SKY/WX    TMP DP  RH WIND       PRES   REMARKS
GALLUP         MOCLDY    66  54  65 SE8       30.27S

$$
NMZ407-409-411-412-311200-
SOUTHERN DESERTS

CITY           SKY/WX    TMP DP  RH WIND       PRES   REMARKS
LORDSBURG      PTSUNNY   75  54  46 E7        30.17R
DEMING         LGT RAIN  70  63  78 VRB6      30.19R
LAS CRUCES     CLOUDY    74  61  65 W7        30.22R
HOLLOMAN AFB   CLOUDY    70  66  88 E2        30.17F
T OR C         MOCLDY    68  59  73 N9        30.23R

$$
NMZ519>523-311200-
CENTRAL VALLEYS/CENTRAL HIGHLANDS

CITY           SKY/WX    TMP DP  RH WIND       PRES   REMARKS
ALBUQUERQUE    MOCLDY    64  56  75 E15       30.28S
CLINES CORNERS FOG       54  54 100 E10       30.39S VSB 1/2
BELEN          FAIR      62  60  92 SE10      30.27R
SOCORRO        CLOUDY    68  60  74 SW5       30.26F

$$
NMZ524>526-539-540-311200-
SOUTHCENTRAL MOUNTAINS

CITY           SKY/WX    TMP DP  RH WIND       PRES   REMARKS
RUIDOSO        NOT AVBL

$$
NMZ527>531-311200-
NORTHEAST HIGHLANDS/NORTHEAST PLAINS

CITY           SKY/WX    TMP DP  RH WIND       PRES   REMARKS
LAS VEGAS      CLOUDY    55  54  96 SW5       30.38F
RATON          CLOUDY    56  55  97 SW8       30.34S FOG
CLAYTON        PTCLDY    56  54  93 N6        30.31R

$$
NMZ532>537-311200-
EASTCENTRAL PLAINS

CITY           SKY/WX    TMP DP  RH WIND       PRES   REMARKS
TUCUMCARI      PTCLDY    61  56  83 CALM      30.25F
CANNON AFB     CLOUDY    62  62 100 NE7       30.26S
CLOVIS AIRPORT CLOUDY    61  55  82 NE10      30.27

$$
NMZ028-029-538-311200-
SOUTHEAST PLAINS

CITY           SKY/WX    TMP DP  RH WIND       PRES   REMARKS
ROSWELL        CLOUDY    67  61  81 CALM      30.23F
ARTESIA        CLOUDY    64  64 100 NE12      30.22S
CARLSBAD       CLOUDY    69  63  81 N13         N/A


$$


USA.gov is the U.S. government's official web portal to all federal, state and local government web resources and services.